owner,sensor,date,latitude,longitude,vertical_datum,wind_speed,wind_to_direction,wind_speed_of_gust,qcFlag 
WAVCIS,ioos:station:WAVCIS:CSI06:1,2009-03-01T00:00:00Z,28.8667,-90.4833,10.0,15.36,337.0,,'11111222,11111222,99999999' 
WAVCIS,ioos:station:WAVCIS:CSI06:1,2009-03-01T01:00:00Z,28.8667,-90.4833,10.0,12.17,338.0,,'11111222,11111222,99999999' 
WAVCIS,ioos:station:WAVCIS:CSI06:1,2009-03-01T02:00:00Z,28.8667,-90.4833,10.0,13.46,332.0,,'11111222,11111222,99999999' 
WAVCIS,ioos:station:WAVCIS:CSI06:1,2009-03-01T03:00:00Z,28.8667,-90.4833,10.0,15.24,334.0,,'11111222,11111222,99999999' 
WAVCIS,ioos:station:WAVCIS:CSI06:1,2009-03-01T04:00:00Z,28.8667,-90.4833,10.0,16.58,335.0,,'11111222,11111222,99999999' 
WAVCIS,ioos:station:WAVCIS:CSI06:1,2009-03-01T05:00:00Z,28.8667,-90.4833,10.0,15.69,335.0,,'11111222,11111222,99999999' 
WAVCIS,ioos:station:WAVCIS:CSI06:1,2009-03-01T06:00:00Z,28.8667,-90.4833,10.0,15.53,329.0,,'11111222,11111222,99999999' 
WAVCIS,ioos:station:WAVCIS:CSI06:1,2009-03-01T07:00:00Z,28.8667,-90.4833,10.0,15.37,333.0,,'11111222,11111222,99999999' 
WAVCIS,ioos:station:WAVCIS:CSI06:1,2009-03-01T08:00:00Z,28.8667,-90.4833,10.0,16.41,329.0,,'11111222,11111222,99999999' 
WAVCIS,ioos:station:WAVCIS:CSI06:1,2009-03-01T09:00:00Z,28.8667,-90.4833,10.0,17.93,328.0,,'11111222,11111222,99999999' 
WAVCIS,ioos:station:WAVCIS:CSI06:1,2009-03-01T10:00:00Z,28.8667,-90.4833,10.0,16.33,334.0,,'11111222,11111222,99999999' 
WAVCIS,ioos:station:WAVCIS:CSI06:1,2009-03-01T11:00:00Z,28.8667,-90.4833,10.0,17.56,336.0,,'11111222,11111222,99999999' 
WAVCIS,ioos:station:WAVCIS:CSI06:1,2009-03-01T12:00:00Z,28.8667,-90.4833,10.0,16.58,334.0,,'11111222,11111222,99999999' 
WAVCIS,ioos:station:WAVCIS:CSI06:1,2009-03-01T13:00:00Z,28.8667,-90.4833,10.0,15.95,329.0,,'11111222,11111222,99999999' 
WAVCIS,ioos:station:WAVCIS:CSI06:1,2009-03-01T14:00:00Z,28.8667,-90.4833,10.0,14.2,331.0,,'11111222,11111222,99999999' 
WAVCIS,ioos:station:WAVCIS:CSI06:1,2009-03-01T15:00:00Z,28.8667,-90.4833,10.0,13.38,330.0,,'11111222,11111222,99999999' 
WAVCIS,ioos:station:WAVCIS:CSI06:1,2009-03-01T16:00:00Z,28.8667,-90.4833,10.0,11.36,332.0,,'11111222,11111222,99999999' 
WAVCIS,ioos:station:WAVCIS:CSI06:1,2009-03-01T17:00:00Z,28.8667,-90.4833,10.0,12.44,331.0,,'11111222,11111222,99999999' 
WAVCIS,ioos:station:WAVCIS:CSI06:1,2009-03-01T18:00:00Z,28.8667,-90.4833,10.0,12.81,324.0,,'11111222,11111222,99999999' 
WAVCIS,ioos:station:WAVCIS:CSI06:1,2009-03-01T19:00:00Z,28.8667,-90.4833,10.0,12.97,322.0,,'11111222,11111222,99999999' 
WAVCIS,ioos:station:WAVCIS:CSI06:1,2009-03-01T20:00:00Z,28.8667,-90.4833,10.0,13.54,324.0,,'11111222,11111222,99999999' 
WAVCIS,ioos:station:WAVCIS:CSI06:1,2009-03-01T21:00:00Z,28.8667,-90.4833,10.0,13.63,329.0,,'11111222,11111222,99999999' 
WAVCIS,ioos:station:WAVCIS:CSI06:1,2009-03-01T22:00:00Z,28.8667,-90.4833,10.0,12.54,328.0,,'11111222,11111222,99999999' 
WAVCIS,ioos:station:WAVCIS:CSI06:1,2009-03-01T23:00:00Z,28.8667,-90.4833,10.0,13.59,328.0,,'11111222,11111222,99999999' 
WAVCIS,ioos:station:WAVCIS:CSI06:1,2009-03-02T00:00:00Z,28.8667,-90.4833,10.0,12.76,331.0,,'11111222,11111222,99999999' 
WAVCIS,ioos:station:WAVCIS:CSI06:1,2009-03-02T01:00:00Z,28.8667,-90.4833,10.0,13.68,335.0,,'11111222,11111222,99999999' 
WAVCIS,ioos:station:WAVCIS:CSI06:1,2009-03-02T02:00:00Z,28.8667,-90.4833,10.0,12.25,338.0,,'11111222,11111222,99999999' 
WAVCIS,ioos:station:WAVCIS:CSI06:1,2009-03-02T03:00:00Z,28.8667,-90.4833,10.0,13.58,339.0,,'11111222,11111222,99999999' 
WAVCIS,ioos:station:WAVCIS:CSI06:1,2009-03-02T04:00:00Z,28.8667,-90.4833,10.0,12.45,343.0,,'11111222,11111222,99999999' 
WAVCIS,ioos:station:WAVCIS:CSI06:1,2009-03-02T05:00:00Z,28.8667,-90.4833,10.0,14.74,338.0,,'11111222,11111222,99999999' 
WAVCIS,ioos:station:WAVCIS:CSI06:1,2009-03-02T06:00:00Z,28.8667,-90.4833,10.0,8.47,351.0,,'11111222,11111222,99999999' 
WAVCIS,ioos:station:WAVCIS:CSI06:1,2009-03-02T07:00:00Z,28.8667,-90.4833,10.0,10.51,345.0,,'11111222,11111222,99999999' 
WAVCIS,ioos:station:WAVCIS:CSI06:1,2009-03-02T08:00:00Z,28.8667,-90.4833,10.0,8.53,348.0,,'11111222,11111222,99999999' 
WAVCIS,ioos:station:WAVCIS:CSI06:1,2009-03-02T09:00:00Z,28.8667,-90.4833,10.0,7.79,355.0,,'11111222,11111222,99999999' 
WAVCIS,ioos:station:WAVCIS:CSI06:1,2009-03-02T10:00:00Z,28.8667,-90.4833,10.0,8.58,5.0,,'11111222,11111222,99999999' 
WAVCIS,ioos:station:WAVCIS:CSI06:1,2009-03-02T11:00:00Z,28.8667,-90.4833,10.0,8.85,11.0,,'11111222,11111222,99999999' 
WAVCIS,ioos:station:WAVCIS:CSI06:1,2009-03-02T12:00:00Z,28.8667,-90.4833,10.0,6.977,3.0,,'11111222,11111222,99999999' 
WAVCIS,ioos:station:WAVCIS:CSI06:1,2009-03-02T13:00:00Z,28.8667,-90.4833,10.0,7.54,7.0,,'11111222,11111222,99999999' 
WAVCIS,ioos:station:WAVCIS:CSI06:1,2009-03-02T14:00:00Z,28.8667,-90.4833,10.0,7.85,6.0,,'11111222,11111222,99999999' 
WAVCIS,ioos:station:WAVCIS:CSI06:1,2009-03-02T15:00:00Z,28.8667,-90.4833,10.0,8.25,14.0,,'11111222,11111222,99999999' 
WAVCIS,ioos:station:WAVCIS:CSI06:1,2009-03-02T16:00:00Z,28.8667,-90.4833,10.0,6.839,15.0,,'11111222,11111222,99999999' 
WAVCIS,ioos:station:WAVCIS:CSI06:1,2009-03-02T17:00:00Z,28.8667,-90.4833,10.0,4.888,6.0,,'11111222,11111222,99999999' 
WAVCIS,ioos:station:WAVCIS:CSI06:1,2009-03-02T18:00:00Z,28.8667,-90.4833,10.0,4.247,359.0,,'11111222,11111222,99999999' 
WAVCIS,ioos:station:WAVCIS:CSI06:1,2009-03-02T19:00:00Z,28.8667,-90.4833,10.0,3.63,357.0,,'11111222,11111222,99999999' 
WAVCIS,ioos:station:WAVCIS:CSI06:1,2009-03-02T20:00:00Z,28.8667,-90.4833,10.0,3.749,334.0,,'11111222,11111222,99999999' 
WAVCIS,ioos:station:WAVCIS:CSI06:1,2009-03-02T21:00:00Z,28.8667,-90.4833,10.0,2.789,313.0,,'11111222,11111222,99999999' 
WAVCIS,ioos:station:WAVCIS:CSI06:1,2009-03-02T22:00:00Z,28.8667,-90.4833,10.0,2.655,303.0,,'11111222,11111222,99999999' 
WAVCIS,ioos:station:WAVCIS:CSI06:1,2009-03-02T23:00:00Z,28.8667,-90.4833,10.0,6.065,289.0,,'11111222,11111222,99999999' 
WAVCIS,ioos:station:WAVCIS:CSI06:1,2009-03-03T00:00:00Z,28.8667,-90.4833,10.0,5.948,298.0,,'11111222,11111222,99999999' 
WAVCIS,ioos:station:WAVCIS:CSI06:1,2009-03-03T01:00:00Z,28.8667,-90.4833,10.0,6.753,314.0,,'11111222,11111222,99999999' 
WAVCIS,ioos:station:WAVCIS:CSI06:1,2009-03-03T16:00:00Z,28.8667,-90.4833,10.0,8.7,59.0,,'11111222,11111222,99999999' 
WAVCIS,ioos:station:WAVCIS:CSI06:1,2009-03-03T17:00:00Z,28.8667,-90.4833,10.0,7.39,71.0,,'11111222,11111222,99999999' 
WAVCIS,ioos:station:WAVCIS:CSI06:1,2009-03-03T18:00:00Z,28.8667,-90.4833,10.0,6.888,64.0,,'11111222,11111222,99999999' 
WAVCIS,ioos:station:WAVCIS:CSI06:1,2009-03-03T19:00:00Z,28.8667,-90.4833,10.0,7.13,65.0,,'11111222,11111222,99999999' 
WAVCIS,ioos:station:WAVCIS:CSI06:1,2009-03-03T20:00:00Z,28.8667,-90.4833,10.0,6.66,65.0,,'11111222,11111222,99999999' 
WAVCIS,ioos:station:WAVCIS:CSI06:1,2009-03-03T21:00:00Z,28.8667,-90.4833,10.0,7.1,60.0,,'11111222,11111222,99999999' 
WAVCIS,ioos:station:WAVCIS:CSI06:1,2009-03-03T22:00:00Z,28.8667,-90.4833,10.0,6.407,58.0,,'11111222,11111222,99999999' 
WAVCIS,ioos:station:WAVCIS:CSI06:1,2009-03-03T23:00:00Z,28.8667,-90.4833,10.0,6.801,66.0,,'11111222,11111222,99999999' 
WAVCIS,ioos:station:WAVCIS:CSI06:1,2009-03-04T00:00:00Z,28.8667,-90.4833,10.0,6.399,72.0,,'11111222,11111222,99999999' 
WAVCIS,ioos:station:WAVCIS:CSI06:1,2009-03-04T01:00:00Z,28.8667,-90.4833,10.0,6.866,88.0,,'11111222,11111222,99999999' 
WAVCIS,ioos:station:WAVCIS:CSI06:1,2009-03-04T02:00:00Z,28.8667,-90.4833,10.0,7.08,93.0,,'11111222,11111222,99999999' 
WAVCIS,ioos:station:WAVCIS:CSI06:1,2009-03-04T03:00:00Z,28.8667,-90.4833,10.0,7.88,92.0,,'11111222,11111222,99999999' 
WAVCIS,ioos:station:WAVCIS:CSI06:1,2009-03-04T04:00:00Z,28.8667,-90.4833,10.0,8.11,96.0,,'11111222,11111222,99999999' 
WAVCIS,ioos:station:WAVCIS:CSI06:1,2009-03-04T05:00:00Z,28.8667,-90.4833,10.0,8.17,97.0,,'11111222,11111222,99999999' 
WAVCIS,ioos:station:WAVCIS:CSI06:1,2009-03-04T06:00:00Z,28.8667,-90.4833,10.0,8.36,114.0,,'11111222,11111222,99999999' 
WAVCIS,ioos:station:WAVCIS:CSI06:1,2009-03-04T07:00:00Z,28.8667,-90.4833,10.0,7.51,118.0,,'11111222,11111222,99999999' 
WAVCIS,ioos:station:WAVCIS:CSI06:1,2009-03-04T08:00:00Z,28.8667,-90.4833,10.0,7.96,115.0,,'11111222,11111222,99999999' 
WAVCIS,ioos:station:WAVCIS:CSI06:1,2009-03-04T09:00:00Z,28.8667,-90.4833,10.0,8.8,114.0,,'11111222,11111222,99999999' 
WAVCIS,ioos:station:WAVCIS:CSI06:1,2009-03-04T10:00:00Z,28.8667,-90.4833,10.0,8.57,114.0,,'11111222,11111222,99999999' 
WAVCIS,ioos:station:WAVCIS:CSI06:1,2009-03-04T11:00:00Z,28.8667,-90.4833,10.0,9.17,117.0,,'11111222,11111222,99999999' 
WAVCIS,ioos:station:WAVCIS:CSI06:1,2009-03-04T12:00:00Z,28.8667,-90.4833,10.0,7.46,141.0,,'11111222,11111222,99999999' 
WAVCIS,ioos:station:WAVCIS:CSI06:1,2009-03-04T13:00:00Z,28.8667,-90.4833,10.0,7.1,137.0,,'11111222,11111222,99999999' 
WAVCIS,ioos:station:WAVCIS:CSI06:1,2009-03-04T14:00:00Z,28.8667,-90.4833,10.0,7.57,128.0,,'11111222,11111222,99999999' 
WAVCIS,ioos:station:WAVCIS:CSI06:1,2009-03-04T15:00:00Z,28.8667,-90.4833,10.0,7.65,133.0,,'11111222,11111222,99999999' 
WAVCIS,ioos:station:WAVCIS:CSI06:1,2009-03-04T16:00:00Z,28.8667,-90.4833,10.0,7.72,130.0,,'11111222,11111222,99999999' 
WAVCIS,ioos:station:WAVCIS:CSI06:1,2009-03-04T17:00:00Z,28.8667,-90.4833,10.0,7.72,127.0,,'11111222,11111222,99999999' 
WAVCIS,ioos:station:WAVCIS:CSI06:1,2009-03-04T18:00:00Z,28.8667,-90.4833,10.0,8.31,124.0,,'11111222,11111222,99999999' 
WAVCIS,ioos:station:WAVCIS:CSI06:1,2009-03-04T19:00:00Z,28.8667,-90.4833,10.0,8.23,126.0,,'11111222,11111222,99999999' 
WAVCIS,ioos:station:WAVCIS:CSI06:1,2009-03-04T20:00:00Z,28.8667,-90.4833,10.0,8.56,128.0,,'11111222,11111222,99999999' 
WAVCIS,ioos:station:WAVCIS:CSI06:1,2009-03-04T21:00:00Z,28.8667,-90.4833,10.0,8.48,129.0,,'11111222,11111222,99999999' 
WAVCIS,ioos:station:WAVCIS:CSI06:1,2009-03-04T22:00:00Z,28.8667,-90.4833,10.0,7.98,127.0,,'11111222,11111222,99999999' 
WAVCIS,ioos:station:WAVCIS:CSI06:1,2009-03-04T23:00:00Z,28.8667,-90.4833,10.0,8.45,128.0,,'11111222,11111222,99999999' 
WAVCIS,ioos:station:WAVCIS:CSI06:1,2009-03-05T00:00:00Z,28.8667,-90.4833,10.0,9.17,132.0,,'11111222,11111222,99999999' 
WAVCIS,ioos:station:WAVCIS:CSI06:1,2009-03-05T01:00:00Z,28.8667,-90.4833,10.0,9.79,131.0,,'11111222,11111222,99999999' 
WAVCIS,ioos:station:WAVCIS:CSI06:1,2009-03-05T02:00:00Z,28.8667,-90.4833,10.0,10.25,135.0,,'11111222,11111222,99999999' 
WAVCIS,ioos:station:WAVCIS:CSI06:1,2009-03-05T03:00:00Z,28.8667,-90.4833,10.0,10.55,134.0,,'11111222,11111222,99999999' 
WAVCIS,ioos:station:WAVCIS:CSI06:1,2009-03-05T04:00:00Z,28.8667,-90.4833,10.0,11.02,138.0,,'11111222,11111222,99999999' 
WAVCIS,ioos:station:WAVCIS:CSI06:1,2009-03-05T05:00:00Z,28.8667,-90.4833,10.0,11.14,142.0,,'11111222,11111222,99999999' 
WAVCIS,ioos:station:WAVCIS:CSI06:1,2009-03-05T06:00:00Z,28.8667,-90.4833,10.0,10.63,142.0,,'11111222,11111222,99999999' 
WAVCIS,ioos:station:WAVCIS:CSI06:1,2009-03-05T07:00:00Z,28.8667,-90.4833,10.0,10.53,144.0,,'11111222,11111222,99999999' 
WAVCIS,ioos:station:WAVCIS:CSI06:1,2009-03-05T08:00:00Z,28.8667,-90.4833,10.0,9.14,142.0,,'11111222,11111222,99999999' 
WAVCIS,ioos:station:WAVCIS:CSI06:1,2009-03-05T09:00:00Z,28.8667,-90.4833,10.0,9.83,140.0,,'11111222,11111222,99999999' 
WAVCIS,ioos:station:WAVCIS:CSI06:1,2009-03-05T10:00:00Z,28.8667,-90.4833,10.0,9.81,137.0,,'11111222,11111222,99999999' 
WAVCIS,ioos:station:WAVCIS:CSI06:1,2009-03-05T11:00:00Z,28.8667,-90.4833,10.0,8.78,135.0,,'11111222,11111222,99999999' 
WAVCIS,ioos:station:WAVCIS:CSI06:1,2009-03-05T12:00:00Z,28.8667,-90.4833,10.0,8.49,130.0,,'11111222,11111222,99999999' 
WAVCIS,ioos:station:WAVCIS:CSI06:1,2009-03-05T13:00:00Z,28.8667,-90.4833,10.0,8.33,127.0,,'11111222,11111222,99999999' 
WAVCIS,ioos:station:WAVCIS:CSI06:1,2009-03-05T14:00:00Z,28.8667,-90.4833,10.0,8.43,132.0,,'11111222,11111222,99999999' 
WAVCIS,ioos:station:WAVCIS:CSI06:1,2009-03-05T15:00:00Z,28.8667,-90.4833,10.0,7.87,127.0,,'11111222,11111222,99999999' 
WAVCIS,ioos:station:WAVCIS:CSI06:1,2009-03-05T16:00:00Z,28.8667,-90.4833,10.0,7.3,130.0,,'11111222,11111222,99999999' 
WAVCIS,ioos:station:WAVCIS:CSI06:1,2009-03-05T17:00:00Z,28.8667,-90.4833,10.0,6.254,122.0,,'11111222,11111222,99999999' 
WAVCIS,ioos:station:WAVCIS:CSI06:1,2009-03-05T18:00:00Z,28.8667,-90.4833,10.0,6.444,118.0,,'11111222,11111222,99999999' 
WAVCIS,ioos:station:WAVCIS:CSI06:1,2009-03-05T19:00:00Z,28.8667,-90.4833,10.0,7.62,109.0,,'11111222,11111222,99999999' 
WAVCIS,ioos:station:WAVCIS:CSI06:1,2009-03-05T20:00:00Z,28.8667,-90.4833,10.0,7.12,112.0,,'11111222,11111222,99999999' 
WAVCIS,ioos:station:WAVCIS:CSI06:1,2009-03-05T21:00:00Z,28.8667,-90.4833,10.0,8.92,120.0,,'11111222,11111222,99999999' 
WAVCIS,ioos:station:WAVCIS:CSI06:1,2009-03-05T22:00:00Z,28.8667,-90.4833,10.0,8.96,122.0,,'11111222,11111222,99999999' 
WAVCIS,ioos:station:WAVCIS:CSI06:1,2009-03-05T23:00:00Z,28.8667,-90.4833,10.0,8.87,124.0,,'11111222,11111222,99999999' 
WAVCIS,ioos:station:WAVCIS:CSI06:1,2009-03-06T00:00:00Z,28.8667,-90.4833,10.0,8.6,127.0,,'11111222,11111222,99999999' 
WAVCIS,ioos:station:WAVCIS:CSI06:1,2009-03-06T01:00:00Z,28.8667,-90.4833,10.0,9.02,129.0,,'11111222,11111222,99999999' 
WAVCIS,ioos:station:WAVCIS:CSI06:1,2009-03-06T02:00:00Z,28.8667,-90.4833,10.0,9.54,130.0,,'11111222,11111222,99999999' 
WAVCIS,ioos:station:WAVCIS:CSI06:1,2009-03-06T03:00:00Z,28.8667,-90.4833,10.0,9.14,133.0,,'11111222,11111222,99999999' 
WAVCIS,ioos:station:WAVCIS:CSI06:1,2009-03-06T04:00:00Z,28.8667,-90.4833,10.0,9.31,136.0,,'11111222,11111222,99999999' 
WAVCIS,ioos:station:WAVCIS:CSI06:1,2009-03-06T05:00:00Z,28.8667,-90.4833,10.0,9.39,138.0,,'11111222,11111222,99999999' 
WAVCIS,ioos:station:WAVCIS:CSI06:1,2009-03-06T06:00:00Z,28.8667,-90.4833,10.0,7.78,139.0,,'11111222,11111222,99999999' 
WAVCIS,ioos:station:WAVCIS:CSI06:1,2009-03-06T07:00:00Z,28.8667,-90.4833,10.0,6.568,138.0,,'11111222,11111222,99999999' 
WAVCIS,ioos:station:WAVCIS:CSI06:1,2009-03-06T08:00:00Z,28.8667,-90.4833,10.0,4.999,141.0,,'11111222,11111222,99999999' 
WAVCIS,ioos:station:WAVCIS:CSI06:1,2009-03-06T09:00:00Z,28.8667,-90.4833,10.0,4.499,134.0,,'11111222,11111222,99999999' 
WAVCIS,ioos:station:WAVCIS:CSI06:1,2009-03-06T10:00:00Z,28.8667,-90.4833,10.0,4.509,122.0,,'11111222,11111222,99999999' 
WAVCIS,ioos:station:WAVCIS:CSI06:1,2009-03-06T11:00:00Z,28.8667,-90.4833,10.0,4.916,128.0,,'11111222,11111222,99999999' 
WAVCIS,ioos:station:WAVCIS:CSI06:1,2009-03-06T12:00:00Z,28.8667,-90.4833,10.0,4.711,139.0,,'11111222,11111222,99999999' 
WAVCIS,ioos:station:WAVCIS:CSI06:1,2009-03-06T13:00:00Z,28.8667,-90.4833,10.0,4.565,138.0,,'11111222,11111222,99999999' 
WAVCIS,ioos:station:WAVCIS:CSI06:1,2009-03-06T14:00:00Z,28.8667,-90.4833,10.0,5.192,129.0,,'11111222,11111222,99999999' 
WAVCIS,ioos:station:WAVCIS:CSI06:1,2009-03-06T15:00:00Z,28.8667,-90.4833,10.0,5.71,122.0,,'11111222,11111222,99999999' 
WAVCIS,ioos:station:WAVCIS:CSI06:1,2009-03-06T16:00:00Z,28.8667,-90.4833,10.0,6.327,121.0,,'11111222,11111222,99999999' 
WAVCIS,ioos:station:WAVCIS:CSI06:1,2009-03-06T17:00:00Z,28.8667,-90.4833,10.0,5.568,117.0,,'11111222,11111222,99999999' 
WAVCIS,ioos:station:WAVCIS:CSI06:1,2009-03-06T18:00:00Z,28.8667,-90.4833,10.0,4.449,109.0,,'11111222,11111222,99999999' 
WAVCIS,ioos:station:WAVCIS:CSI06:1,2009-03-06T19:00:00Z,28.8667,-90.4833,10.0,5.347,107.0,,'11111222,11111222,99999999' 
WAVCIS,ioos:station:WAVCIS:CSI06:1,2009-03-06T20:00:00Z,28.8667,-90.4833,10.0,4.617,108.0,,'11111222,11111222,99999999' 
WAVCIS,ioos:station:WAVCIS:CSI06:1,2009-03-06T21:00:00Z,28.8667,-90.4833,10.0,4.575,102.0,,'11111222,11111222,99999999' 
WAVCIS,ioos:station:WAVCIS:CSI06:1,2009-03-06T22:00:00Z,28.8667,-90.4833,10.0,5.119,101.0,,'11111222,11111222,99999999' 
WAVCIS,ioos:station:WAVCIS:CSI06:1,2009-03-06T23:00:00Z,28.8667,-90.4833,10.0,5.624,108.0,,'11111222,11111222,99999999' 
WAVCIS,ioos:station:WAVCIS:CSI06:1,2009-03-07T00:00:00Z,28.8667,-90.4833,10.0,6.669,107.0,,'11111222,11111222,99999999' 
WAVCIS,ioos:station:WAVCIS:CSI06:1,2009-03-07T01:00:00Z,28.8667,-90.4833,10.0,6.816,104.0,,'11111222,11111222,99999999' 
WAVCIS,ioos:station:WAVCIS:CSI06:1,2009-03-07T02:00:00Z,28.8667,-90.4833,10.0,6.368,107.0,,'11111222,11111222,99999999' 
WAVCIS,ioos:station:WAVCIS:CSI06:1,2009-03-07T03:00:00Z,28.8667,-90.4833,10.0,6.538,124.0,,'11111222,11111222,99999999' 
WAVCIS,ioos:station:WAVCIS:CSI06:1,2009-03-07T04:00:00Z,28.8667,-90.4833,10.0,7.48,130.0,,'11111222,11111222,99999999' 
WAVCIS,ioos:station:WAVCIS:CSI06:1,2009-03-07T05:00:00Z,28.8667,-90.4833,10.0,9.28,128.0,,'11111222,11111222,99999999' 
WAVCIS,ioos:station:WAVCIS:CSI06:1,2009-03-07T06:00:00Z,28.8667,-90.4833,10.0,9.37,132.0,,'11111222,11111222,99999999' 
WAVCIS,ioos:station:WAVCIS:CSI06:1,2009-03-07T07:00:00Z,28.8667,-90.4833,10.0,8.44,130.0,,'11111222,11111222,99999999' 
WAVCIS,ioos:station:WAVCIS:CSI06:1,2009-03-07T21:00:00Z,28.8667,-90.4833,10.0,6.024,120.0,,'11111222,11111222,99999999' 
WAVCIS,ioos:station:WAVCIS:CSI06:1,2009-03-07T22:00:00Z,28.8667,-90.4833,10.0,5.679,124.0,,'11111222,11111222,99999999' 
WAVCIS,ioos:station:WAVCIS:CSI06:1,2009-03-07T23:00:00Z,28.8667,-90.4833,10.0,5.9,125.0,,'11111222,11111222,99999999' 
WAVCIS,ioos:station:WAVCIS:CSI06:1,2009-03-08T00:00:00Z,28.8667,-90.4833,10.0,5.604,108.0,,'11111222,11111222,99999999' 
WAVCIS,ioos:station:WAVCIS:CSI06:1,2009-03-08T01:00:00Z,28.8667,-90.4833,10.0,6.354,105.0,,'11111222,11111222,99999999' 
WAVCIS,ioos:station:WAVCIS:CSI06:1,2009-03-08T02:00:00Z,28.8667,-90.4833,10.0,7.79,108.0,,'11111222,11111222,99999999' 
WAVCIS,ioos:station:WAVCIS:CSI06:1,2009-03-08T03:00:00Z,28.8667,-90.4833,10.0,7.62,109.0,,'11111222,11111222,99999999' 
WAVCIS,ioos:station:WAVCIS:CSI06:1,2009-03-08T04:00:00Z,28.8667,-90.4833,10.0,6.666,113.0,,'11111222,11111222,99999999' 
WAVCIS,ioos:station:WAVCIS:CSI06:1,2009-03-08T05:00:00Z,28.8667,-90.4833,10.0,7.08,119.0,,'11111222,11111222,99999999' 
WAVCIS,ioos:station:WAVCIS:CSI06:1,2009-03-08T06:00:00Z,28.8667,-90.4833,10.0,6.905,122.0,,'11111222,11111222,99999999' 
WAVCIS,ioos:station:WAVCIS:CSI06:1,2009-03-08T07:00:00Z,28.8667,-90.4833,10.0,7.82,124.0,,'11111222,11111222,99999999' 
WAVCIS,ioos:station:WAVCIS:CSI06:1,2009-03-08T08:00:00Z,28.8667,-90.4833,10.0,7.86,141.0,,'11111222,11111222,99999999' 
WAVCIS,ioos:station:WAVCIS:CSI06:1,2009-03-08T09:00:00Z,28.8667,-90.4833,10.0,8.46,145.0,,'11111222,11111222,99999999' 
WAVCIS,ioos:station:WAVCIS:CSI06:1,2009-03-08T10:00:00Z,28.8667,-90.4833,10.0,8.35,149.0,,'11111222,11111222,99999999' 
WAVCIS,ioos:station:WAVCIS:CSI06:1,2009-03-08T11:00:00Z,28.8667,-90.4833,10.0,8.93,147.0,,'11111222,11111222,99999999' 
WAVCIS,ioos:station:WAVCIS:CSI06:1,2009-03-08T12:00:00Z,28.8667,-90.4833,10.0,7.07,136.0,,'11111222,11111222,99999999' 
WAVCIS,ioos:station:WAVCIS:CSI06:1,2009-03-08T13:00:00Z,28.8667,-90.4833,10.0,4.461,144.0,,'11111222,11111222,99999999' 
WAVCIS,ioos:station:WAVCIS:CSI06:1,2009-03-08T14:00:00Z,28.8667,-90.4833,10.0,3.342,163.0,,'11111222,11111222,99999999' 
WAVCIS,ioos:station:WAVCIS:CSI06:1,2009-03-08T15:00:00Z,28.8667,-90.4833,10.0,1.892,171.0,,'11111222,11111222,99999999' 
WAVCIS,ioos:station:WAVCIS:CSI06:1,2009-03-08T16:00:00Z,28.8667,-90.4833,10.0,1.979,211.0,,'11111222,11111222,99999999' 
WAVCIS,ioos:station:WAVCIS:CSI06:1,2009-03-08T17:00:00Z,28.8667,-90.4833,10.0,1.112,175.0,,'11111222,11111222,99999999' 
WAVCIS,ioos:station:WAVCIS:CSI06:1,2009-03-08T18:00:00Z,28.8667,-90.4833,10.0,0.647,177.0,,'11111222,11111222,99999999' 
WAVCIS,ioos:station:WAVCIS:CSI06:1,2009-03-08T19:00:00Z,28.8667,-90.4833,10.0,0.8,142.0,,'11111222,11111222,99999999' 
WAVCIS,ioos:station:WAVCIS:CSI06:1,2009-03-08T20:00:00Z,28.8667,-90.4833,10.0,1.388,125.0,,'11111222,11111222,99999999' 
WAVCIS,ioos:station:WAVCIS:CSI06:1,2009-03-08T21:00:00Z,28.8667,-90.4833,10.0,1.204,167.0,,'11111222,11111222,99999999' 
WAVCIS,ioos:station:WAVCIS:CSI06:1,2009-03-08T22:00:00Z,28.8667,-90.4833,10.0,2.632,134.0,,'11111222,11111222,99999999' 
WAVCIS,ioos:station:WAVCIS:CSI06:1,2009-03-08T23:00:00Z,28.8667,-90.4833,10.0,3.882,131.0,,'11111222,11111222,99999999' 
WAVCIS,ioos:station:WAVCIS:CSI06:1,2009-03-09T00:00:00Z,28.8667,-90.4833,10.0,3.512,121.0,,'11111222,11111222,99999999' 
WAVCIS,ioos:station:WAVCIS:CSI06:1,2009-03-09T01:00:00Z,28.8667,-90.4833,10.0,5.268,132.0,,'11111222,11111222,99999999' 
WAVCIS,ioos:station:WAVCIS:CSI06:1,2009-03-09T02:00:00Z,28.8667,-90.4833,10.0,5.57,133.0,,'11111222,11111222,99999999' 
WAVCIS,ioos:station:WAVCIS:CSI06:1,2009-03-09T03:00:00Z,28.8667,-90.4833,10.0,5.192,136.0,,'11111222,11111222,99999999' 
WAVCIS,ioos:station:WAVCIS:CSI06:1,2009-03-09T04:00:00Z,28.8667,-90.4833,10.0,4.752,136.0,,'11111222,11111222,99999999' 
WAVCIS,ioos:station:WAVCIS:CSI06:1,2009-03-09T05:00:00Z,28.8667,-90.4833,10.0,4.889,145.0,,'11111222,11111222,99999999' 
WAVCIS,ioos:station:WAVCIS:CSI06:1,2009-03-09T06:00:00Z,28.8667,-90.4833,10.0,4.213,150.0,,'11111222,11111222,99999999' 
WAVCIS,ioos:station:WAVCIS:CSI06:1,2009-03-09T07:00:00Z,28.8667,-90.4833,10.0,4.388,142.0,,'11111222,11111222,99999999' 
WAVCIS,ioos:station:WAVCIS:CSI06:1,2009-03-09T08:00:00Z,28.8667,-90.4833,10.0,4.699,147.0,,'11111222,11111222,99999999' 
WAVCIS,ioos:station:WAVCIS:CSI06:1,2009-03-09T09:00:00Z,28.8667,-90.4833,10.0,6.16,143.0,,'11111222,11111222,99999999' 
WAVCIS,ioos:station:WAVCIS:CSI06:1,2009-03-09T10:00:00Z,28.8667,-90.4833,10.0,6.386,149.0,,'11111222,11111222,99999999' 
WAVCIS,ioos:station:WAVCIS:CSI06:1,2009-03-09T11:00:00Z,28.8667,-90.4833,10.0,5.745,140.0,,'11111222,11111222,99999999' 
WAVCIS,ioos:station:WAVCIS:CSI06:1,2009-03-09T12:00:00Z,28.8667,-90.4833,10.0,5.503,138.0,,'11111222,11111222,99999999' 
WAVCIS,ioos:station:WAVCIS:CSI06:1,2009-03-09T13:00:00Z,28.8667,-90.4833,10.0,5.002,135.0,,'11111222,11111222,99999999' 
WAVCIS,ioos:station:WAVCIS:CSI06:1,2009-03-09T14:00:00Z,28.8667,-90.4833,10.0,4.456,129.0,,'11111222,11111222,99999999' 
WAVCIS,ioos:station:WAVCIS:CSI06:1,2009-03-09T15:00:00Z,28.8667,-90.4833,10.0,4.815,108.0,,'11111222,11111222,99999999' 
WAVCIS,ioos:station:WAVCIS:CSI06:1,2009-03-09T16:00:00Z,28.8667,-90.4833,10.0,5.859,112.0,,'11111222,11111222,99999999' 
WAVCIS,ioos:station:WAVCIS:CSI06:1,2009-03-09T17:00:00Z,28.8667,-90.4833,10.0,5.5,114.0,,'11111222,11111222,99999999' 
WAVCIS,ioos:station:WAVCIS:CSI06:1,2009-03-09T18:00:00Z,28.8667,-90.4833,10.0,6.086,105.0,,'11111222,11111222,99999999' 
WAVCIS,ioos:station:WAVCIS:CSI06:1,2009-03-09T19:00:00Z,28.8667,-90.4833,10.0,7.08,109.0,,'11111222,11111222,99999999' 
WAVCIS,ioos:station:WAVCIS:CSI06:1,2009-03-09T20:00:00Z,28.8667,-90.4833,10.0,6.322,107.0,,'11111222,11111222,99999999' 
WAVCIS,ioos:station:WAVCIS:CSI06:1,2009-03-09T21:00:00Z,28.8667,-90.4833,10.0,5.259,112.0,,'11111222,11111222,99999999' 
WAVCIS,ioos:station:WAVCIS:CSI06:1,2009-03-09T22:00:00Z,28.8667,-90.4833,10.0,6.104,99.0,,'11111222,11111222,99999999' 
WAVCIS,ioos:station:WAVCIS:CSI06:1,2009-03-09T23:00:00Z,28.8667,-90.4833,10.0,5.707,102.0,,'11111222,11111222,99999999' 
WAVCIS,ioos:station:WAVCIS:CSI06:1,2009-03-10T00:00:00Z,28.8667,-90.4833,10.0,5.53,106.0,,'11111222,11111222,99999999' 
WAVCIS,ioos:station:WAVCIS:CSI06:1,2009-03-10T01:00:00Z,28.8667,-90.4833,10.0,5.934,109.0,,'11111222,11111222,99999999' 
WAVCIS,ioos:station:WAVCIS:CSI06:1,2009-03-10T02:00:00Z,28.8667,-90.4833,10.0,6.059,110.0,,'11111222,11111222,99999999' 
WAVCIS,ioos:station:WAVCIS:CSI06:1,2009-03-10T03:00:00Z,28.8667,-90.4833,10.0,5.836,114.0,,'11111222,11111222,99999999' 
WAVCIS,ioos:station:WAVCIS:CSI06:1,2009-03-10T04:00:00Z,28.8667,-90.4833,10.0,6.295,125.0,,'11111222,11111222,99999999' 
WAVCIS,ioos:station:WAVCIS:CSI06:1,2009-03-10T05:00:00Z,28.8667,-90.4833,10.0,6.292,133.0,,'11111222,11111222,99999999' 
WAVCIS,ioos:station:WAVCIS:CSI06:1,2009-03-10T06:00:00Z,28.8667,-90.4833,10.0,6.222,140.0,,'11111222,11111222,99999999' 
WAVCIS,ioos:station:WAVCIS:CSI06:1,2009-03-10T07:00:00Z,28.8667,-90.4833,10.0,7.08,138.0,,'11111222,11111222,99999999' 
WAVCIS,ioos:station:WAVCIS:CSI06:1,2009-03-10T08:00:00Z,28.8667,-90.4833,10.0,6.935,137.0,,'11111222,11111222,99999999' 